Temperature
21 19 19 20 20 20 20 20 20 20 20 19 18 17 17 17 16 16 16 16 16 16 17 17 18 17 17 17 17 16 16 16 16 16 16 15 15 15 15 15 15 14 14 14
19 20 20 20 20 20 20 20 20 19 20 19 17 17 17 17 16 16 16 16 16 16 17 17 17 17 17 16 16 16 16 16 16 15 15 15 15 15 15 14 14 14 14 14
21 21 21 21 20 20 20 20 20 19 19 18 18 17 17 16 16 16 16 16 16 16 16 16 16 16 16 16 16 16 16 16 15 15 15 15 14 14 14 14 14 14 14 14
20 20 21 21 21 20 20 20 20 19 18 17 18 17 16 16 15 15 15 15 15 16 16 16 16 16 16 16 16 16 15 15 15 15 15 14 14 14 14 14 14 14 13 13
20 20 20 21 21 20 20 19 18 18 17 17 16 16 15 15 15 15 15 15 15 16 16 15 15 15 15 15 15 15 15 15 15 14 14 14 14 14 13 13 13 13 13 13
20 20 20 21 20 20 19 18 17 15 15 16 17 16 15 15 15 15 15 15 15 15 15 15 15 15 15 15 15 15 15 15 14 14 14 14 14 13 13 13 13 13 13 13
19 20 20 20 19 19 17 16 16 16 15 16 16 15 15 15 15 15 15 15 15 15 15 15 15 15 15 15 14 14 14 14 14 14 14 13 13 13 13 13 12 12 12 12
18 18 19 19 19 19 17 17 16 16 16 15 15 15 15 15 15 15 15 15 14 14 15 15 15 14 14 14 14 14 14 14 13 13 13 13 13 13 13 12 12 12 12 12
18 18 19 19 19 18 18 16 15 14 15 15 15 15 15 15 15 14 14 14 14 14 14 14 14 14 14 14 14 14 13 13 13 13 13 13 13 13 12 12 12 12 12 12
18 18 18 18 18 17 17 15 13 14 15 15 15 15 14 14 14 13 13 13 14 14 14 14 14 14 14 13 13 13 13 13 13 13 13 12 12 12 12 12 12 12 12 12
16 16 17 17 17 17 17 16 13 12 13 14 14 14 15 14 14 13 13 13 13 13 14 13 14 13 13 13 13 13 13 13 13 12 12 12 12 12 12 12 12 12 12 12
15 14 15 16 17 17 17 16 14 14 14 13 13 13 15 13 13 13 13 13 14 13 13 13 13 13 13 13 13 13 13 13 12 12 12 12 12 12 12 12 12 12 12 12
15 14 15 16 16 16 16 16 14 12 12 12 13 14 14 13 13 13 13 13 14 13 13 13 13 13 13 13 13 12 12 12 12 12 12 12 12 12 12 12 11 12 12 11
15 13 14 15 16 15 15 16 15 13 13 13 13 14 14 13 13 13 13 13 13 13 13 13 13 13 12 12 12 12 12 12 12 12 12 12 12 12 11 11 11 11 11 11
14 14 14 14 15 15 15 15 15 14 14 13 14 14 13 13 12 13 13 13 13 13 13 13 12 12 12 12 12 12 12 12 12 12 12 12 12 11 11 11 11 11 11 11
12 14 14 15 16 15 15 15 15 15 14 14 14 13 13 13 13 12 13 13 13 13 13 12 12 12 12 12 12 12 11 11 11 11 11 11 11 11 11 11 11 11 11 11
12 13 13 13 14 15 14 15 15 14 14 13 13 13 12 12 12 12 13 13 13 13 13 12 12 12 12 12 12 11 11 11 11 11 11 11 11 11 11 11 11 11 11 11
12 11 11 12 14 15 14 15 15 14 14 13 13 13 12 12 12 13 13 13 13 12 12 12 12 12 12 12 11 11 11 11 11 11 11 11 11 11 11 11 11 11 11 11
11 11 11 11 13 14 14 14 14 14 14 13 12 12 12 12 12 13 13 13 13 12 12 12 12 12 12 12 11 11 11 11 11 11 11 11 11 11 11 11 11 11 11 11
11 10 11 11 13 14 14 14 14 14 13 13 12 12 12 11 11 11 13 13 12 12 12 12 12 12 12 12 12 11 11 11 11 11 11 11 11 11 11 11 11 11 11 11
12 11 11 11 12 12 13 14 14 13 13 13 13 13 12 11 11 13 12 12 12 12 12 12 12 12 12 12 12 11 11 11 11 11 11 11 11 11 11 11 11 11 11 11
11 11 11 10 11 12 14 13 13 12 14 13 13 13 13 13 13 13 12 12 12 12 12 12 12 12 12 12 12 11 12 11 11 11 11 11 12 11 11 11 11 11 11 11
11 11 10 11 11 13 13 14 14 14 14 14 13 13 13 13 13 12 12 12 12 12 12 12 12 12 12 12 12 11 12 11 11 11 11 12 12 11 11 11 11 11 11 11
11 11 10 10 11 13 14 14 14 14 14 14 13 13 13 13 13 12 12 12 12 12 12 12 12 12 12 12 12 12 12 11 11 11 11 12 11 11 11 11 11 11 11 11
11 10 10 10 11 13 14 14 14 14 14 13 13 13 13 13 12 12 12 12 12 12 12 12 12 12 12 12 12 12 12 12 11 11 11 11 11 11 12 11 11 11 11 11
10 10 10 11 12 12 13 14 14 13 13 13 13 13 13 12 12 12 12 12 12 12 12 12 12 12 12 12 12 12 12 12 12 11 11 11 12 12 11 11 11 11 11 11
Wind_Speed
3 5 1 4 4 4 3 2 3 3 2 3 4 3 3 4 6 6 5 4 4 4 4 6 5 4 4 4 3 2 2 1 1 1 1 1 1 1 1 2 2 2 2 2
5 3 4 3 1 3 3 1 2 3 2 3 4 4 3 4 3 3 3 3 3 4 6 6 5 4 4 3 3 2 1 1 1 1 1 1 1 1 2 2 2 2 2 2
2 3 3 2 4 3 1 2 3 3 2 4 4 3 4 3 4 5 4 2 2 2 3 4 4 4 3 2 1 1 1 1 0 1 1 0 1 1 1 2 2 3 2 2
2 4 3 4 3 2 2 3 2 1 2 1 1 0 3 3 5 5 4 4 3 3 3 3 4 4 3 3 1 1 1 1 1 0 1 1 1 1 3 3 3 3 3 2
2 4 4 4 3 1 2 2 2 2 3 2 4 3 4 2 3 5 4 4 3 3 3 3 3 3 3 3 2 2 1 1 2 1 1 1 1 2 2 2 4 3 3 2
3 3 2 2 3 2 1 5 5 5 5 2 2 1 3 2 3 4 4 3 2 2 2 3 3 4 4 4 3 2 2 1 1 2 2 1 1 1 1 2 3 4 3 2
7 6 6 3 4 6 7 6 5 6 5 3 2 1 4 3 1 2 3 2 1 1 1 2 3 4 5 5 5 3 2 2 2 2 3 3 2 2 2 2 3 3 3 3
5 6 6 5 2 1 2 5 4 2 3 4 3 1 4 2 2 3 2 1 1 1 2 2 3 3 4 4 4 3 3 3 3 3 3 3 3 2 2 3 3 4 3 3
2 5 5 4 3 2 3 2 3 5 0 2 4 3 4 4 5 5 5 4 3 2 3 3 3 3 3 3 4 4 3 4 4 3 3 3 3 3 3 3 3 3 3 3
1 3 5 5 5 7 4 4 5 4 1 3 5 4 4 6 7 7 6 5 4 4 4 4 4 3 3 3 3 4 3 4 4 3 2 2 3 3 3 2 3 3 3 3
3 1 6 5 4 4 4 4 5 3 3 3 3 5 3 3 4 4 5 4 3 3 4 4 4 4 4 3 3 3 3 3 3 3 3 2 3 3 3 2 3 3 3 3
3 3 3 4 4 1 2 2 3 2 1 2 2 6 3 2 3 3 4 4 3 3 4 4 4 3 3 4 4 3 3 4 4 3 3 2 3 3 3 3 3 3 3 2
2 4 4 7 7 6 5 3 2 3 3 2 2 5 4 6 6 5 4 5 4 4 4 4 4 4 4 4 4 4 4 4 4 3 3 3 3 3 4 4 3 3 2 2
4 3 4 3 4 4 5 5 3 3 2 2 4 5 7 8 7 7 6 5 4 4 4 4 5 5 4 4 4 4 5 4 4 3 3 3 3 3 4 4 3 3 2 2
4 2 1 3 4 1 2 5 4 1 1 3 4 4 6 7 6 6 6 5 5 5 5 5 5 5 5 5 5 4 5 5 4 3 3 4 4 3 3 3 3 3 2 2
4 2 2 3 2 2 3 6 5 3 1 1 3 4 5 6 5 5 6 6 5 6 6 5 5 5 5 5 5 5 5 5 4 3 4 4 4 3 3 3 3 2 2 2
2 2 2 3 6 3 3 4 2 2 1 1 2 5 5 7 7 6 6 5 5 6 6 6 5 5 5 5 4 4 5 4 4 4 4 4 3 3 4 3 3 2 3 2
4 3 2 1 4 1 4 3 1 1 2 1 3 4 5 6 6 6 5 4 6 6 6 6 5 5 5 5 4 4 4 4 4 4 4 3 3 3 3 3 3 3 2 3
3 5 3 2 1 4 4 3 2 1 3 2 3 5 5 5 5 5 4 4 5 5 5 5 5 4 4 5 4 4 4 4 3 3 4 3 3 3 3 3 3 3 2 3
5 4 4 3 0 3 4 5 3 1 4 3 3 5 5 4 5 6 7 6 6 5 5 5 5 4 4 5 4 4 5 4 4 4 4 3 3 3 3 3 3 2 2 3
3 3 2 2 2 5 5 5 3 2 6 6 5 5 4 3 5 7 7 6 5 5 5 5 4 4 4 4 3 4 4 5 5 4 3 3 3 3 3 3 2 2 2 2
2 1 1 2 1 5 3 2 1 5 5 5 5 5 5 6 6 6 6 6 6 5 5 5 4 5 5 3 3 4 5 5 4 3 3 4 4 3 2 2 2 2 2 3
3 5 4 5 6 5 4 4 5 4 4 5 4 5 4 4 5 6 5 5 5 5 5 5 4 5 5 4 2 4 6 4 4 3 4 4 3 3 2 1 2 2 2 2
3 2 2 3 6 6 6 5 4 4 5 6 5 5 4 4 5 5 6 5 5 5 5 4 4 4 5 5 4 4 5 3 2 3 4 3 2 3 3 2 1 1 2 2
5 2 2 4 7 7 6 5 5 5 6 5 5 4 4 4 5 5 5 5 5 5 5 4 3 4 6 5 5 4 3 2 2 2 3 3 2 2 2 3 2 2 2 2
5 6 5 6 7 5 8 7 5 6 6 6 5 4 4 4 5 5 5 5 4 5 4 4 4 5 5 5 5 4 3 1 1 2 3 2 2 1 2 2 3 4 2 3
Wind_Direction
37 61 12 259 211 199 190 193 271 281 315 83 93 72 18 31 55 60 58 50 46 35 25 26 30 46 65 65 74 101 120 115 117 149 199 216 245 263 270 265 274 267 259 252
35 360 275 261 152 119 142 113 300 317 17 105 101 65 35 37 52 62 65 51 33 25 24 18 19 36 54 64 61 69 113 140 145 188 210 209 213 239 250 268 293 291 274 263
112 287 320 75 67 70 70 181 254 256 17 59 98 25 25 13 25 33 31 25 8 32 15 8 10 11 26 38 41 355 347 18 149 170 142 39 41 352 329 307 294 290 284 260
35 324 23 51 35 55 301 282 253 196 98 324 77 220 325 342 355 358 351 344 341 357 10 7 9 3 357 343 351 357 5 1 341 94 165 188 211 258 273 293 288 293 287 270
337 349 31 28 322 292 254 336 47 80 116 60 25 110 301 351 335 318 318 320 326 347 9 6 360 349 347 351 2 3 11 11 349 332 234 207 252 266 285 319 315 303 289 284
326 332 33 326 336 29 33 39 45 47 67 44 328 132 295 287 281 303 312 320 328 353 16 1 358 358 353 352 357 354 348 321 338 339 326 285 263 277 306 321 307 306 298 288
348 349 354 8 17 12 42 59 26 8 12 282 319 106 252 269 283 297 308 312 321 339 357 348 344 350 343 338 331 336 334 329 339 338 331 319 284 248 248 266 270 283 295 284
12 330 339 357 17 295 26 108 136 214 249 289 341 270 262 298 333 356 11 16 8 316 322 319 317 319 317 319 315 313 316 312 306 305 306 306 292 272 264 255 250 259 263 267
14 301 322 351 359 91 72 69 152 137 119 319 305 304 306 354 3 9 17 21 356 320 313 310 311 301 290 297 302 289 286 290 288 286 294 301 300 285 274 275 269 267 268 274
74 299 318 322 29 29 76 124 74 84 79 309 307 300 291 318 332 347 351 348 334 334 325 321 314 296 288 283 293 297 288 279 283 288 281 300 303 295 279 279 282 283 283 285
55 59 328 6 29 351 20 47 70 91 139 164 287 285 259 264 298 313 309 311 310 310 307 304 303 301 296 302 306 306 312 306 303 296 285 292 296 296 296 292 286 285 288 292
52 93 339 308 302 322 86 96 114 108 277 175 203 272 310 307 321 320 316 316 310 300 304 300 304 311 312 309 312 310 311 309 301 296 290 290 299 314 317 311 309 310 310 306
68 74 20 349 347 5 26 28 64 114 117 154 196 272 341 4 359 348 328 317 317 319 328 326 323 320 313 308 309 309 306 302 305 304 296 295 303 315 306 300 303 307 310 316
91 89 149 204 257 314 336 348 17 99 128 231 238 273 324 341 337 336 332 322 324 331 331 327 322 317 312 310 307 309 308 306 310 310 298 292 292 291 288 295 306 311 312 306
77 98 234 255 278 295 3 344 2 52 206 213 273 280 309 320 319 323 327 328 334 337 332 325 321 321 320 318 314 313 311 315 318 322 313 295 290 294 306 309 313 316 318 305
55 99 12 334 350 40 30 2 8 5 352 315 324 307 312 324 339 338 332 328 325 323 322 318 319 320 319 314 311 314 314 316 321 318 307 307 312 315 315 311 315 331 331 321
52 100 65 298 317 7 348 333 349 322 331 217 287 294 323 335 333 318 311 315 315 315 318 316 310 307 306 305 306 306 305 314 321 314 308 308 314 316 309 313 326 323 317 320
133 110 118 340 14 302 259 315 305 275 310 332 309 313 314 311 307 297 288 294 308 316 317 313 309 310 308 308 312 310 317 319 317 315 315 316 317 320 324 327 323 318 314 317
128 129 110 93 342 294 310 337 343 289 297 341 322 317 322 332 336 312 300 305 300 307 311 307 302 302 309 311 313 321 323 320 318 314 317 318 319 321 328 328 315 310 315 323
57 77 102 103 121 264 278 315 316 65 307 312 315 305 313 348 337 304 313 317 314 321 320 318 321 329 323 314 322 327 317 320 312 304 303 302 305 305 299 297 302 302 307 310
27 42 91 147 226 269 283 316 22 53 284 298 284 282 278 260 257 281 304 308 308 313 316 319 319 318 307 311 326 321 315 305 295 304 316 317 313 305 296 303 313 317 323 338
180 150 181 145 203 272 299 32 146 244 274 283 278 270 262 266 281 295 303 305 314 318 318 319 317 309 311 320 327 316 307 300 309 323 326 318 319 318 330 340 338 344 354 355
201 194 195 195 218 251 264 241 255 238 265 275 270 276 266 266 282 294 298 303 309 305 307 309 303 308 315 319 318 303 299 310 329 340 330 325 334 340 353 9 358 0 11 4
274 172 173 260 270 274 281 274 275 264 266 272 272 275 259 262 273 284 293 300 304 303 302 305 310 314 313 313 312 292 297 314 333 332 328 332 345 350 357 4 358 352 347 345
240 200 218 263 280 299 291 276 280 294 297 291 291 274 251 252 274 277 285 288 291 298 302 304 299 296 299 308 312 307 306 322 330 325 329 337 346 353 354 351 331 310 288 261
212 191 194 238 246 243 272 279 284 289 290 282 281 282 278 254 258 273 280 278 282 295 305 310 308 305 305 312 312 313 314 309 306 322 325 326 333 344 347 351 354 1 343 343
Height
1493 1498 1503 1499 1497 1497 1499 1503 1506 1501 1495 1498 1502 1504 1501 1499 1497 1497 1497 1498 1497 1497 1497 1495 1494 1493 1494 1494 1494 1495 1495 1495 1495 1495 1495 1495 1494 1495 1495 1495 1494 1493 1493 1492
1499 1502 1496 1493 1494 1496 1500 1504 1505 1501 1496 1499 1504 1505 1503 1501 1501 1501 1500 1499 1498 1497 1497 1496 1495 1495 1494 1493 1493 1493 1493 1493 1493 1494 1494 1493 1492 1492 1493 1492 1492 1491 1491 1490
1501 1500 1494 1494 1496 1499 1500 1502 1502 1503 1499 1500 1503 1509 1506 1504 1502 1502 1501 1500 1499 1499 1498 1497 1496 1496 1495 1494 1493 1492 1492 1492 1492 1492 1492 1492 1491 1490 1490 1489 1489 1488 1488 1487
1500 1497 1495 1497 1498 1499 1504 1496 1497 1499 1506 1513 1507 1520 1511 1507 1505 1503 1502 1501 1500 1499 1499 1498 1497 1496 1496 1495 1493 1493 1492 1492 1491 1491 1490 1489 1488 1487 1487 1487 1486 1486 1485 1485
1502 1498 1498 1500 1498 1497 1498 1495 1497 1500 1506 1514 1513 1520 1518 1509 1508 1505 1503 1502 1501 1500 1500 1499 1498 1497 1496 1495 1493 1492 1491 1490 1490 1489 1489 1487 1486 1486 1485 1484 1483 1483 1483 1482
1500 1497 1497 1498 1496 1495 1496 1499 1502 1508 1514 1524 1518 1521 1522 1514 1509 1506 1503 1502 1501 1501 1500 1499 1498 1497 1496 1495 1493 1491 1490 1489 1489 1488 1488 1486 1485 1484 1483 1482 1482 1481 1481 1480
1508 1502 1499 1497 1499 1499 1502 1512 1524 1526 1531 1528 1518 1521 1521 1509 1506 1505 1503 1502 1501 1501 1500 1499 1498 1496 1495 1494 1493 1491 1489 1488 1488 1487 1486 1485 1484 1483 1481 1481 1481 1480 1479 1477
1519 1518 1505 1501 1502 1505 1506 1513 1530 1536 1537 1531 1521 1522 1515 1506 1505 1504 1502 1502 1501 1500 1499 1499 1498 1496 1495 1493 1492 1491 1489 1487 1486 1485 1484 1483 1482 1481 1480 1479 1479 1478 1477 1476
1521 1518 1505 1502 1501 1503 1508 1515 1517 1528 1530 1534 1527 1519 1511 1505 1504 1503 1502 1501 1500 1499 1499 1498 1497 1496 1494 1493 1491 1489 1488 1486 1485 1484 1483 1482 1481 1480 1479 1478 1477 1476 1475 1474
1515 1520 1510 1505 1503 1505 1508 1514 1522 1530 1536 1538 1529 1524 1521 1511 1507 1504 1502 1501 1500 1499 1498 1497 1495 1494 1493 1491 1489 1488 1486 1485 1484 1483 1482 1481 1480 1478 1478 1477 1476 1474 1473 1472
1515 1523 1519 1512 1513 1515 1513 1517 1524 1532 1532 1538 1539 1530 1511 1509 1506 1505 1503 1501 1500 1498 1497 1496 1494 1493 1491 1490 1488 1486 1485 1484 1482 1481 1480 1479 1478 1478 1477 1475 1474 1473 1471 1470
1519 1526 1529 1520 1513 1511 1512 1516 1523 1530 1533 1535 1537 1531 1508 1507 1505 1503 1502 1500 1499 1498 1496 1495 1493 1491 1490 1489 1487 1486 1484 1482 1481 1479 1478 1478 1477 1477 1476 1474 1472 1471 1470 1468
1520 1528 1535 1530 1525 1518 1517 1517 1520 1527 1533 1536 1536 1527 1509 1507 1506 1503 1501 1500 1498 1496 1495 1493 1491 1490 1489 1487 1486 1484 1483 1481 1479 1478 1477 1476 1475 1474 1474 1472 1471 1470 1468 1467
1518 1528 1535 1537 1532 1525 1523 1520 1519 1524 1532 1533 1528 1520 1512 1509 1507 1504 1502 1500 1498 1496 1494 1492 1490 1489 1487 1486 1484 1483 1481 1479 1478 1476 1475 1474 1473 1472 1472 1471 1470 1468 1467 1466
1520 1529 1528 1526 1523 1523 1523 1521 1519 1522 1523 1526 1522 1518 1514 1510 1508 1506 1503 1500 1498 1496 1494 1492 1490 1488 1486 1484 1483 1481 1479 1478 1476 1475 1473 1473 1472 1471 1470 1469 1468 1467 1466 1465
1523 1528 1528 1527 1522 1522 1524 1521 1519 1520 1520 1521 1519 1517 1512 1510 1507 1505 1503 1500 1498 1496 1494 1491 1489 1487 1485 1483 1481 1479 1478 1476 1475 1474 1473 1472 1471 1470 1469 1468 1467 1466 1465 1465
1528 1530 1533 1534 1527 1524 1529 1523 1522 1521 1520 1520 1521 1518 1512 1509 1507 1505 1503 1501 1498 1496 1493 1490 1488 1486 1484 1483 1481 1479 1477 1475 1474 1473 1472 1471 1470 1469 1468 1467 1466 1465 1465 1464
1528 1532 1538 1538 1532 1535 1529 1520 1519 1519 1518 1517 1517 1515 1512 1510 1507 1505 1502 1501 1498 1495 1493 1490 1488 1486 1484 1482 1480 1478 1477 1475 1473 1472 1471 1470 1469 1468 1467 1466 1466 1465 1464 1463
1524 1530 1537 1541 1539 1534 1525 1520 1519 1520 1519 1516 1515 1513 1511 1509 1506 1503 1502 1500 1498 1495 1493 1490 1488 1485 1483 1481 1480 1478 1476 1474 1473 1472 1470 1470 1469 1468 1467 1466 1466 1465 1464 1462
1527 1529 1537 1541 1539 1538 1528 1519 1517 1519 1521 1515 1514 1513 1511 1509 1509 1504 1501 1499 1497 1494 1492 1489 1487 1485 1483 1482 1480 1477 1475 1474 1473 1472 1471 1470 1469 1468 1467 1467 1466 1465 1464 1462
1533 1535 1539 1541 1540 1533 1523 1519 1518 1526 1525 1515 1512 1511 1510 1509 1508 1504 1500 1498 1496 1494 1491 1489 1487 1485 1483 1481 1479 1477 1475 1474 1473 1472 1471 1470 1469 1468 1468 1467 1466 1465 1463 1462
1535 1538 1539 1542 1542 1536 1521 1519 1522 1522 1515 1513 1511 1509 1508 1506 1504 1502 1499 1497 1495 1492 1490 1488 1486 1484 1483 1481 1479 1477 1475 1474 1473 1472 1471 1470 1469 1469 1468 1467 1466 1465 1463 1462
1532 1532 1533 1533 1532 1523 1519 1518 1517 1516 1513 1511 1509 1507 1506 1504 1502 1500 1498 1496 1494 1492 1490 1488 1486 1484 1482 1481 1479 1477 1476 1475 1473 1472 1471 1470 1470 1469 1468 1467 1466 1465 1463 1462
1528 1526 1528 1527 1522 1519 1517 1516 1515 1513 1511 1509 1507 1505 1504 1502 1500 1498 1496 1494 1492 1490 1488 1487 1485 1483 1481 1480 1478 1477 1476 1475 1473 1472 1471 1470 1470 1469 1468 1467 1466 1465 1463 1462
1525 1525 1526 1525 1519 1516 1514 1513 1512 1510 1508 1506 1504 1503 1502 1500 1498 1497 1494 1493 1491 1489 1487 1485 1483 1482 1480 1479 1478 1477 1476 1475 1473 1472 1471 1471 1470 1469 1468 1467 1466 1465 1463 1462
1521 1521 1523 1521 1516 1515 1512 1510 1509 1507 1505 1504 1502 1500 1499 1498 1496 1494 1493 1491 1489 1487 1486 1484 1482 1481 1480 1478 1477 1476 1475 1475 1473 1472 1471 1471 1470 1469 1468 1467 1466 1465 1464 1462